Location: DaVinci Observatory
(43.1080°N, 78.6453°W)
Time: 02:07:41
(UTC-04:00)

Tiangong 1 - Pass Details

Date: 11 October 2017
Orbit: 292 x 319 km, 42.8° (Epoch: 23 October)

Event Time Altitude Azimuth Distance (km) Brightness Sun altitude
Rises 19:30:42 0° 272° (W) 2,045 7.1 -10.4°
Reaches altitude 10° 19:32:42 10° 271° (W) 1,209 5.2 -10.8°
Maximum altitude 19:35:25 84° 183° (S) 316 0.6 -11.3°
Enters shadow 19:36:56 22° 97° (E) 731 1.8 -11.6°
